This is the latest recevied weather packets stored in our database for station/object DL1VED. If no packets are shown the sender has not sent any weather packets the latest 10 day(s).
| Time | Temp. | Humidity | Pressure | Rain* | Wind** | Luminosity | Snow |
|---|---|---|---|---|---|---|---|
| 1788145785 | 63° F | 86% | 759.2 mmHg | 0 in | - | - | - |
| 1788144885 | 63° F | 86% | 759.1 mmHg | 0 in | - | - | - |
| 1788143992 | 63° F | 86% | 759.1 mmHg | 0 in | - | - | - |
| 1788143986 | 63° F | 86% | 759.1 mmHg | 0 in | - | - | - |
| 1788143086 | 63° F | 86% | 759 mmHg | 0 in | - | - | - |
| 1788142186 | 63° F | 86% | 758.9 mmHg | 0 in | - | - | - |
| 1788141286 | 63° F | 87% | 758.8 mmHg | 0.01 in | - | - | - |
| 1788140386 | 63° F | 88% | 758.8 mmHg | 0.01 in | - | - | - |
| 1788139486 | 63° F | 88% | 758.9 mmHg | 0.01 in | - | - | - |
| 1788138586 | 63° F | 88% | 758.9 mmHg | 0.01 in | - | - | - |
| 1788137686 | 63° F | 87% | 758.8 mmHg | 0 in | - | - | - |
| 1788136834 | 63° F | 86% | 758.8 mmHg | 0.01 in | - | - | - |
| 1788136786 | 63° F | 86% | 758.8 mmHg | 0.01 in | - | - | - |
| 1788135917 | 63° F | 85% | 759 mmHg | 0.04 in | - | - | - |
| 1788135886 | 63° F | 85% | 759 mmHg | 0.04 in | - | - | - |
| 1788134986 | 63° F | 85% | 759 mmHg | 0.08 in | - | - | - |
| 1788134086 | 63° F | 85% | 758.9 mmHg | 0.13 in | - | - | - |
| 1788133186 | 63° F | 83% | 758.8 mmHg | 0.2 in | - | - | - |
| 1788132286 | 64° F | 83% | 759.1 mmHg | 0.23 in | - | - | - |
| 1788131386 | 63° F | 83% | 759.1 mmHg | 0.19 in | - | - | - |
| 1788130486 | 64° F | 81% | 759.2 mmHg | 0.16 in | - | - | - |
| 1788129586 | 64° F | 81% | 759.3 mmHg | 0.1 in | - | - | - |
| 1788128686 | 64° F | 80% | 759.1 mmHg | 0.05 in | - | - | - |
| 1788127786 | 64° F | 79% | 759.1 mmHg | 0.04 in | - | - | - |
| 1788126924 | 64° F | 78% | 759.1 mmHg | 0.03 in | - | - | - |
* Rain latest hour (hover to see other rain measurements)
** Current wind speed in m/s (hover to see current wind gust speed)